Simultaneous Nadir Overpasses (SNOs) Predictions

Prediction of SNOs between LANDSAT-8 and NOAA-19 Satellite Orbit:

Table of predicted SNOs for the next 14.0 days since TLE Epoch: 11/19/2022
Index Date (LANDSAT-8) Time (LANDSAT-8) Lat,Lon (LANDSAT-8) SZA (LANDSAT-8 ) Date (NOAA-19) Time (NOAA-19) Lat,Lon (NOAA-19) SZA (NOAA-19 ) Distance(km) Time Diff (sec)
1 11/19/2022 21:51:09 80.90,-111.04 102.55 11/19/2022 21:50:15 80.89,-111.01 102.52 0.62 54
2 11/19/2022 22:40:36 -80.89, 56.53 77.46 11/19/2022 22:41:12 -80.89, 56.50 77.45 0.55 36
3 11/22/2022 04:14:21 80.88, 153.00 103.01 11/22/2022 04:14:02 80.89, 152.93 103.00 1.69 19
4 11/22/2022 05:03:48 -80.88, -39.41 77.00 11/22/2022 05:04:59 -80.89, -39.33 76.96 1.77 71
5 11/24/2022 10:37:32 80.89, 57.34 103.48 11/24/2022 10:37:48 80.89, 57.19 103.47 2.72 16
6 11/26/2022 16:11:17 -80.90, 153.96 76.10 11/26/2022 16:10:34 -80.89, 154.12 76.11 2.90 43
7 11/26/2022 17:00:44 80.88, -38.70 103.86 11/26/2022 17:01:34 80.89, -38.61 103.90 2.38 50
8 11/28/2022 22:34:28 -80.90, 58.24 75.71 11/28/2022 22:34:21 -80.89, 58.12 75.73 2.43 7
9 12/01/2022 04:08:12 80.91, 154.82 104.65 12/01/2022 04:07:07 80.89, 154.89 104.62 1.72 65



Historial Predications of SNOs between LANDSAT-8 and NOAA-19
